RH
64 68 71 72 76 87 95 94 90 80 77 78 73 64 57 48 39 39 39 38 38 36 37 36 37 40 42 40 43 43 44 47 50 43 44 47 46 48 52 65 55 72 76 56
50 59 66 73 79 89 98 97 93 96 89 81 76 65 59 52 47 44 46 40 41 40 38 40 42 42 42 42 44 48 47 52 51 46 47 48 52 49 47 51 59 63 74 61
51 46 55 65 76 88 94 99 99 97 93 79 72 73 68 62 53 47 46 52 48 47 45 43 44 42 42 42 43 45 43 50 50 52 51 57 56 52 44 49 72 64 51 49
46 44 43 54 65 80 97 99 96 94 95 82 81 85 74 71 69 60 55 53 55 56 54 48 49 46 49 48 47 49 52 53 54 53 55 53 47 39 34 38 32 45 32 38
36 39 40 41 60 74 94 96 98 98 94 87 90 88 74 76 78 76 67 61 54 63 58 52 53 56 56 53 53 54 51 54 54 53 48 44 45 47 40 34 35 37 34 37
43 39 38 41 53 73 83 97 96 99 93 95 98 84 74 74 86 74 71 74 72 65 59 63 62 61 58 59 58 55 55 59 60 53 49 48 48 36 34 37 39 41 46 37
40 40 36 38 46 61 71 91 95 99 97 95 83 85 84 83 81 68 68 83 83 77 75 73 73 72 68 65 65 61 55 54 59 68 59 67 37 33 39 46 46 46 44 41
47 45 41 45 46 52 60 70 96 99 97 90 91 88 83 82 72 65 64 76 85 86 81 85 80 81 69 60 52 43 44 52 65 69 68 51 37 44 52 53 49 51 48 48
40 45 44 48 47 47 53 63 82 97 97 95 90 91 88 80 75 71 62 69 88 89 92 88 82 82 74 66 53 50 56 61 68 79 73 65 48 61 67 66 67 52 55 62
30 34 38 42 44 44 48 56 70 96 97 94 93 92 89 81 76 69 66 80 91 88 89 93 89 82 71 69 53 48 66 71 77 79 81 65 52 61 70 74 63 52 66 71
37 38 41 41 39 42 46 48 58 81 97 97 96 90 84 72 68 72 70 84 85 82 84 87 87 77 60 59 42 48 62 76 74 78 81 77 71 73 79 69 67 70 69 73
48 41 41 36 39 39 42 50 49 78 98 98 96 92 84 72 63 63 77 77 79 77 79 76 68 61 60 62 64 61 75 79 96 98 95 87 83 85 87 84 77 81 80 76
72 51 42 39 39 38 38 48 63 88 98 98 98 87 85 74 67 64 69 80 86 80 72 89 86 81 87 90 93 90 87 90 95 92 75 83 85 89 81 82 79 81 79 78
77 59 50 42 43 38 39 48 62 85 99 98 96 88 86 79 70 70 68 74 78 83 85 82 87 97 92 90 83 81 79 82 78 79 83 86 89 92 90 90 83 85 83 81
86 64 49 47 45 39 47 50 64 89 97 98 92 89 83 76 71 69 63 63 66 74 74 72 81 91 86 76 73 60 62 65 69 69 79 86 84 87 87 88 86 81 77 71
81 60 51 51 43 47 55 69 60 89 97 98 97 82 76 71 68 64 61 66 69 68 69 62 54 49 50 58 50 34 35 41 41 56 68 77 77 77 79 81 82 78 75 71
79 64 53 44 48 53 80 86 84 90 97 95 88 81 74 68 66 66 66 67 70 72 73 69 62 59 60 53 41 30 42 47 51 64 74 69 74 71 75 76 78 79 76 73
68 60 53 52 56 75 91 98 98 99 99 96 90 73 66 63 61 63 64 67 71 74 77 73 74 78 74 57 43 55 60 55 53 55 62 62 66 68 75 77 75 77 80 76
54 51 58 56 71 88 98 98 98 99 95 86 71 64 65 66 65 69 76 81 87 85 81 80 82 81 67 49 56 59 58 56 58 70 70 77 77 71 74 75 80 81 81 81
87 95 98 98 89 88 99 99 98 95 84 71 64 64 67 66 75 82 86 92 97 92 80 86 83 63 54 55 57 62 62 59 66 73 75 78 85 85 82 86 89 90 87 86
98 98 99 99 99 98 96 96 87 77 70 61 60 61 67 79 83 86 87 96 96 92 85 84 75 66 61 66 75 70 65 65 71 73 76 83 88 92 97 98 96 94 87 80
97 94 98 97 94 90 86 81 75 66 63 62 62 66 70 77 81 83 89 93 98 97 98 98 89 80 80 79 74 70 68 72 78 79 80 87 92 92 91 90 90 90 87 78
92 90 86 85 83 80 74 76 70 59 60 68 72 73 69 77 80 84 90 95 93 98 98 97 93 88 86 83 78 73 72 72 67 61 69 84 87 86 88 90 90 84 77 71
87 83 83 79 76 60 59 56 59 62 70 73 74 80 85 84 93 94 95 85 91 96 96 83 84 85 84 84 82 78 65 61 64 68 71 82 80 85 85 84 80 73 69 63
61 59 64 62 60 60 66 69 70 73 75 80 91 96 95 97 93 91 87 94 91 84 77 80 82 84 83 82 81 76 66 66 70 69 70 65 62 62 65 64 63 60 56 55
63 63 70 70 71 75 78 75 76 80 90 94 99 98 98 98 96 94 86 87 75 69 76 78 80 85 83 76 75 73 69 67 67 69 62 56 53 52 57 60 55 51 48 47
73 76 75 79 77 77 76 80 82 85 87 95 97 98 98 99 96 93 88 86 84 88 82 81 81 75 72 73 70 74 73 69 70 67 63 60 60 56 54 53 50 48 46 47